Погода в Каменце

Беларусь     52°24′06″N   23°49′18″E
темп.,
°C
ветер,
м/с
пор.,
м/с
влажн.,
%
обл.,
%
осадки,
мм/ч
давл.,
гПа
погр.,
м
27 октября, ср
ср2700:00+7юз41165100 0.0 1020296
03:00+8з41072100 0.0 1021407
06:00+8з4108615 0.1 1021426
09:00+6з410966 0.1 1022278
12:00+10з597596 0.0 1023615
15:00+13зюз6962100 0.0 1022958
18:00+12зюз5116970 0.0 1022676
21:00+11зюз61271100 0.0 1022673
28 октября, чт
чт2800:00+10зюз51279100 0.0 1022397
03:00+9зюз5138791 0.0 1022383
06:00+8з41295100 0.0 1022327
09:00+8з3997100 0.0 1023267
12:00+12з5879100 0.0 1024361
15:00+14з467196 0.0 1024606
18:00+12зсз228597 0.0 102427
21:00+10з119115 0.0 102510
29 октября, пт
пт2900:00+9ю119161 0.0 102610
03:00+9ююв229355 0.0 102624
06:00+8ююв359514 0.0 102680
09:00+8юв39965 0.0 1026180
12:00+13ююв59745 0.0 1025443
15:00+16ююв69625 0.0 1024782
18:00+14юв5117130 0.0 1023362
21:00+12юв6148281 0.0 1023421
30 октября, сб
сб3000:00+11юв5148591 0.0 1022405
03:00+10юв5148865 0.0 1022372
06:00+9юв5139077 0.0 1021341
09:00+8ююв512918 0.0 1021302
12:00+13ю613599 0.0 1021526
15:00+16ююз59425 0.0 1020864
18:00+13ю37525 0.0 1021104
21:00+11ю410580 0.0 1021204
31 октября, вс
вс3100:00+9ю38665 0.0 1021143
03:00+8ююв38752 0.0 1020135
06:00+7юв49825 0.0 1019164
09:00+7юв512817 0.0 1018258
12:00+12ююв6145912 0.0 1016521
15:00+15ююв71453100 0.0 1014672
18:00+14ююв71455100 0.0 1012619
21:00+13ююв71556100 0.0 1012649